[Date Prev][Date Next][Thread Prev][Thread Next][Date Index][Thread Index]

[jamsat-news:1634] jas2info #255



========================   最新情報   ==============================

        Last updated :15Dec.2001  19:00(JST)   #255

====================================================================
   
1)アマチュア通信衛星情報、FOシリーズの軌道要素、テレメトリ、QSOの
   状況等をまとめてみました.
   
 FO−29の2001年12月15日(土)の17:35(JST)のパスでは
JARLのホームページのとうりアナログ運用でした。 今日までの観測した
テレメトリーと最終の分析結果を報告しておきます。

AS26314C   15Dec2001
17:37-17:46(JST)
Freq.  435.799-435.791MHz

HI HI AE 07 88 55 00 D4 6C 3C 09 46 39 6E 00 88 87 86 91 83 95 92 92 93 90 
HI HI AE 07 88 55 00 D4 6C 3C 09 46 40 71 0B 83 87 86 92 6E 95 93 92 93 90 
HI HI AE 07 88 55 00 D4 6C 3C 09 46 4A 79 56 5C 8A 88 95 84 96 93 92 93 90 
HI HI AE 07 88 55 00 D4 6C 3C 09 46 55 81 5B 59 8C 8A 96 68 96 93 92 94 90 
HI HI AE 07 88 55 00 D4 6C 3C 09 46 61 89 60 57 8D 8B 98 68 96 93 93 94 90 
HI HI AE 07 88 55 00 D4 6C 3C 99 46 6D 90 60 58 8E 8C 99 70 96 94 93 94 90 
HI HI AE 07 88 55 00 D4 6C 3C 09 46 77 96 67 54 8F 8D 9A 81 97 94 93 94 90 
HI HI AE 07 88 55 00 D4 6C 3C 09 46 7F 98 6C 51 91 8E 8C 86 97 94 93 95 90 
HI HI AE 07 88 55 00 D4 6C 3C 09 46 85 97 6B 51 91 8F 9C 7A 97 94 93 95 90 
HI HI AE 07 88 55 00 D4 BC 3C 09 46 89 91 6B 52 91 7D 9E 85 97 94 93 95 90 

AS26261C 11Dec2001
19:42-19:45(JST)
Freq. 435.786-435.786MHz

HI HI AE 07 88 55 00 D4 0E 66 09 47 56 3E 67 55 91 8F 9C 8E 93 91 96 96 8F 
HI HI AE 07 88 55 00 D4 0E 66 09 47 58 3A 6F 50 92 8F 9D 7C 93 91 96 97 8F 
HI HI AE C7 88 55 00 D4 0E 66 09 47 5D 38 70 5F 90 8E B0 7A 93 91 96 97 8F 

S26247C   10Dec2001
18:36-18:53(JST)
Freq. 435.802-.786MHz

HI HI AE 07 88 55 00 D4 BA E0 09 19 91 6D 00 88 89 88 93 92 96 8E 8F 95 90 
HI HI AE 07 88 55 00 D4 BA E0 09 19 30 6D 00 88 88 87 93 7A 96 8E 8F 95 90 
HI HI AE 07 88 55 00 D4 BA E0 09 19 36 6D 00 88 88 87 93 83 96 8E 8F 95 90 
HI HI AE 07 88 55 00 H4 BA E0 09 19 3F 6D 00 89 88 87 93 76 96 8E 8F 95 90 
HI HI AE 07 88 55 00 D4 BA E0 09 19 49 6D 00 88 88 87 93 72 96 8F 8F 95 90 
HI HI AE 07 88 55 00 D4 BA E0 09 19 54 6E 00 87 87 87 92 7E 97 8F 90 96 90 
HI HI AE 07 88 55 00 D4 BA E0 09 19 60 6F 00 88 87 86 92 6C 97 8F 90 96 90 
HI HI AE 07 88 55 00 D4 BA E0 09 19 6C 72 00 87 87 86 92 83 97 8F 90 96 90 
HI HI AE 07 88 55 00 D4 BA E0 09 19 77 75 00 87 87 86 91 78 97 90 91 96 90 
HI HI AE 07 88 55 00 D4 BA E0 09 19 81 7A 05 85 87 86 91 7E 97 90 91 96 90 
HI HI AE 07 88 55 00 D4 BA E0 09 19 88 80 05 86 89 88 91 8D 97 99 91 96 90   
HI HI AE 07 88 00 00 D4 BA E0 09 19 8D 86 56 5D 8B 89 96 74 97 91 91 96 90 
HI HI AE 07 88 55 00 D4 BA E0 09 19 8F 8B 57 5D 8C 8A 97 7D 98 91 92 96 90 
HI HI AE 07 88 55 00 D5 BA E0 09 19 8E 90 58 5C 8D 8B 97 67 98 91 92 97 90 
HI HI AE 07 88 55 00 D4 BA E0 09 19 8B 95 59 5B 8E 8C 99 78 98 91 92 97 90 
HI HI AE 07 88 55 00 D4 BA E0 09 19 86 9A 5C 59 8F 8D 99 86 98 92 93 97 90 
HI HI AE 07 88 55 00 D4 BA E0 09 19 7E 9D 5F 59 90 8D 9B 76 98 92 93 97 90 
HI HI AE 07 88 H5 00 D4 BA E0 09 19 75 9F 60 58 90 8E 9B 7B 98 92 93 97 90 
HI HI AE 07 88 S5 00 D4 BA E0 09 19 6B A0 61 56 90 8E 9B 81 98 9  93 77 90 
HI HI AE 07 88 55 00 D4 BA E0 09 19 61 9F 63 56 91 8E 9C 77 98 93 94 97 90 
HI HI AE 07 88 55 00 D4 BA E0 09 19 57 9D 68 53 91 8E 9C 8A 98 93 94 97 90
HI HI AE 07 88 55 00 D4 BA E0 09 19 4E 98 67 54 92 8F 9C 6C 98 93 94 97 90 
HI HI AE 07 88 55 00 D4 BA E0 09 19 45 90 67 

------------------------ FO-29の軌道要素 ------------------------------        
 
  ■ 軌道要素1:「jamsat−keps:1057」より         
          SB KEPS @ AMSAT  $ORB01347.N
          2Line Orbital Elements 01347.AMSAT

HR AMSAT ORBITAL ELEMENTS FOR AMATEUR SATELLITES IN NASA FORMAT
FROM WA5QGD FORT WORTH,TX December 13, 2001
SEND SUBSCRIBE/UNSUBSCRIBE TO majordomo@amsat.org ONLY
BID: ORB01347.N

 DECODE 2-LINE ELSETS WITH THE FOLLOWING KEY:
 1 AAAAAU 00  0  0 BBBBB.BBBBBBBB  .CCCCCCCC  00000-0  00000-0 0  DDDZ
 2 AAAAA EEE.EEEE FFF.FFFF GGGGGGG HHH.HHHH III.IIII JJ.JJJJJJJJKKKKKZ
 KEY: A-CATALOGNUM B-EPOCHTIME C-DECAY D-ELSETNUM E-INCLINATION F-RAAN
 G-ECCENTRICITY H-ARGPERIGEE I-MNANOM J-MNMOTION K-ORBITNUM Z-CHECKSUM

FO-29
1 24278U 96046B   01347.62828255  .00000118  00000-0  15964-3 0  4635
2 24278  98.5162 188.2787 0350179 256.7106  99.4764 13.52803169262905

 ■ 軌道要素2:「jamsat−keps:1058」より
        SB KEPS @ AMSAT  $ORB01347.O
        Orbital Elements  01347.OSCAR

HR AMSAT ORBITAL ELEMENTS FOR OSCAR SATELLITES
FROM WA5QGD FORT WORTH,TX December 13, 2001
SEND SUBSCRIBE/UNSUBSCRIBE TO majordomo@amsat.org ONLY
BID: ORB01347.O
TO ALL RADIO AMATEURS BT

Satellite: FO-29
Catalog number: 24278
Epoch time:      01347.62828255
Element set:     463
Inclination:       98.5162 deg
RA of node:       188.2787 deg
Eccentricity:    0.0350179
Arg of perigee:   256.7106 deg
Mean anomaly:      99.4764 deg
Mean motion:   13.52803169 rev/day
Decay rate:       1.18e-06 rev/day^2
Epoch rev:           26290
Checksum:              340

-------------------  FO-29(JAS-2)のテレメトリに関する情報  ---------------------- 
 
2)上記12月15日(土)のテレメトリの最終行を分析しておきます.

AS26314C   15Dec2001
17:37-17:46(JST)
Freq.  435.799-435.791MHz

HI HI AE 07 88 55 00 D4 BC 3C 09 46 89 91 6B 52 91 7D 9E 85 97 94 93 95 90 

テレメトリ   内 容        換算数値 単 位
3C	磁気センサーZ軸=	67156.8	[nT]
3D	磁気センサX軸	=	71078.4	[nT]
4A	太陽電池発生電流=	 1049.0	[mA]
4B	B充放電電流	=	 -392.8	[mA]
4C	B端子電圧	=	   15.6	[V]
4D	B中間端子電圧	=	    6.0	[V]
5A	バス電圧	=	   15.5	[V]
5B	JTA送信電力	=	  766.4	[mW]
5C 	構体温度1	=	   23.2	[℃]
5D	構体温度2	=	   24.4	[℃]
6A	構体温度3	=	   24.8	[℃]
6B	構体温度4	=	   24.0	[℃]
6C	Bセル温度	=	   26.0	[℃]

 ========================== FO-29(ふじ3号)のQSO情報等 =====================
   
 3)[jamsat-bb:

 ===============================================================================
   4)JARL のホームページに運用予定が記載されていましたのでご紹介します.
       ( http://www.jarl.or.jp/Japanese/3_Fuji/new/uy.htm )
       
        ふじ3号(JAS−2)の運用          

       *** 運用予定について ***

  平成13年      平成14年
 12月4日(火) 〜 3月31日(日)アナログ系運用

  *なお,運用予定は都合により,変更することがありますので,
   あらかじめご了承願います。

 照会先 : lab@jarl.or.jp

 最新の情報はテレホンサービス(03−3942−1000)をお聞きください。  
 以後の運用につきましては平成14年4月上旬にお知らせいたします 
     
-----------------------    FO−20(JAS-1b)道要素   -------------------------
  
  ■ 軌道要素1 :出典はFO-29「ふじ3号」に同じ.
  
FO-20
1 20480U 90013C   01346.62570696 -.00000002  00000-0  76115-4 0 03689
2 20480 099.0333 021.5136 0539851 265.1520 088.7769 12.83303773554986
 
  ■ 軌道要素2 :出典はFO−29「ふじ3号」に同じ.
               
 Satellite: FO-20
 Catalog number: 20480
 Epoch time:      01346.62570696
 Element set:    0368
 Inclination:      099.0333 deg
 RA of node:       021.5136 deg
 Eccentricity:    0.0539851
 Arg of perigee:   265.1520 deg
 Mean anomaly:     088.7769 deg
 Mean motion:   12.83303773 rev/day
 Decay rate:       -2.0e-08 rev/day^2
 Epoch rev:           55498
 Checksum:              313

 -------------------------------------------------------------------------------- 
         ■ ふじ2号/FO−20/JAS-1b ■      
            
          「ふじ2号」 現況                                                                                  
             
   JAS-1b(ふじ2号)のCWテレメトリ信号に,1997年10月12日12時(JST)の
 日本上空通過時,3桁の数字が繰り返されるはずが3個の長音の繰り返しとなっているという
 異常が発見されました。この不具合は次の通過時からは回復していましたが13日15時20分の
 通過時に再び観測されました。現在はA0の送信が続いています。衛星のアナログ系中継モード
 動作は異常が無く,正常時のテレメトリ内容からは衛星の動作に異常は認められません。従って,
 直ちに衛星のミッションに影響することは無いと予想されますので,当面はアナログ系中継
 モードを継続します。衛星は既に打ち上げてから7年8ヶ月を経ておりますので,今後は監視を
 強化する予定です。アマチュア各位のレポートをお待ちします。
 -------------------------------------------------------------------------------- 
  1997年10月14日 00時35分 確認のテレメトリ音 151 KB (A0) 
  1997年10月14日 11時10分 確認のテレメトリ音 216 KB (異常キーイング) 

  以上 JARLのホ−ムページの http://www.jarl.or.jp/Japanese/3_Fuji/new/fuji.htm

===================== FO-20 ふじ2号 のテレメトリ観測結果 ====================

  10月27日(土)11:33(JST)の観測結果ではテレメトリは、以前観測した単一周波数の
ドップラー効果で周波数がずれていくのみの状態でした。
                                         
   =============   JAS-2 (ふじ3号)と現在までの情報   ===========
  
  A.電話によるふじ3号の運用情報
      社団法人日本アマチュア連盟によるサービス
           TEL .   03− 3942 − 1000
  B.アマチュア無線FAXサービス
      JARLによるふじ3号の軌道情報(オービットカレンダー)
         FAX No.  03− 3233 −0055
  C.WWWブラウザで情報を簡単に見れる人のためにJAS−2
     ふじ3号の衛星としての運用されるまでの名前)の概要、打ち上げ
     までの状況、運用中における状況を説明したホームページを紹介し
     ておきます.
     社団法人日本アマチュア無線連盟(JARL)のホームページ

          http://www.jarl.or.jp/Japanese/3_Fuji/jasmenu.htm
 
     宇宙開発事業団(NASDA)ホームページ 
          http://www.nasda.go.jp/
         打上げ衛星 :地球観測プラットフォーム技術衛星(ADEOS) 
                       アマチュア衛星3号(JAS-2)
          http://spaceboy.nasda.go.jp/note/eisei/j/Eis15h_j.html#Eis15h_01_j
     http://spaceboy.nasda.go.jp/note/eisei/j/Eis15i_j.html        

  D.JAMSATによる軌道情報の活用
        JAMSATのホームページまたはjamsat−kepsの軌道要素より
      衛星の軌道情報を得る.
     JAMSATホームページ
               URL    http://www.jamsat.or.jp
       上記ホームページでは各地で行われるアマチュア通信衛星に関する
      ミューティングのお知らせや世界のアマチュア衛星に関する情報が
      満載されています.

 ========================================================================  
     JAMSATのメンバーのご協力によりJH6MME(高山 秀造)が
    執筆・編集を担当しております.ご指摘の意見、疑問やこのようにしたら
    というアイデアがありましたら小さなことでもかまいませんので気軽に下
    記アドレスまでご連絡ください.jamsat−newsからjas2
    infoへの転載をJH4PHW局坂井さんに担当して頂いております.  
                  E-mail : jh6mme@jamsat.or.jp : jh4phw@jamsat.or.jp
 ===============================   END  ===============================